DELTA 1 DEB, 26833

Orbit data source: Space-Track

DELTA 1 DEB, 26833 is space debris in SSO originally from a launch on Thu, 12 Jun 1975 UTC launched from the Air Force Western Test Range (AFWTR). Debris objects in space refer to the collection of defunct objects orbiting the Earth. Examples of debris include non-operational satellites, rocket bodies, and fragments generated from explosions, collisions, or faulty payload assembly.

Loading next visibility...
Identifier
26833, 1975-052KM
Orbit
SSO
Country
Flag of USUS
Related business
Manufacturer
Unknown
Mission
Spacecraft
Bus & Motor
Unknown
Mass
Unknown
Launch date (UTC)
1975-06-12 (51 years ago)
Launch vehicle
Unknown
Launch site
Air Force Western Test Range (AFWTR)
Object type
Payload
Rocket body
Debris
Shape & HBR
Unknown shape, 0.1 m
Radar Cross Section
Small (<0.1 m²)

Expand to show TLE details & history
Last TLE update: 5 days ago

TLE from 5 days ago
0 DELTA 1 DEB
1 26833U 75052KM  26168.02572627 -.00000027  00000-0  36382-4 0  9991
2 26833  99.7317  94.1550 0367279 325.5533  46.1955 12.73618462649610
Epoch: 2026-06-17T00:37Z
TLE epoch observation values (Epoch: 2026-06-17T00:37:02.749Z)
Latitude
14.641°
Longitude
177.04938°
Altitude
1,177.927 km
Speed
7.355 km/s
True Right ascension
06h 06m 24s
True Declination
14° 33' 42"
Sunlit
Object was in daylight at epoch
Visualization orbit readout
Latitude
Unknown
Longitude
Unknown
Altitude
Unknown
Speed
Unknown
Apparent Right ascension
Unknown
Apparent Declination
Unknown
Sunlit
N/A
Visualization observer readout
Local Sidereal Time
12:44:04
Azimuth
Unknown
Elevation
Unknown
Doppler factor
Unknown
Orbital elements
Apogee altitude
1,649.011 km
Perigee altitude
1,080.26 km
Semi-major axis
7,742.773 km
Eccentricity
0.03673
Inclination
99.7317°
RAAN
94.155°
Arg. of periapsis
325.5533°
True anomaly
49.33094°
Mean anomaly
46.1955°
Eccentric anomaly
47.75326°
Mean motion
3.18565 °/min
Orbital period
113.01 mins
BSTAR
0.000036382
Loading maneuver chart data...
Computing Atmospheric mass density...

Documentation

Showing up to 5 results
|